Location: Cerro Alto Campground
(35.4250°N, 120.7383°W)
Time: 15:37:10
(UTC-07:00)

Daily predictions for brighter satellites

Satellite Brightness Start Highest point End
(mag) Time Altitude Azimuth Time Altitude Azimuth Time Altitude Azimuth
H-2A R/B 3.8 19:02:37 10° WSW 19:07:04 54° S 19:35:21 10° ESE
Cosmos 1825 3.5 20:07:08 10° NNE 20:10:08 22° ENE 20:13:07 10° SE
Intercosmos 25 Rocket 4.2 20:09:29 10° SE 20:12:06 23° E 20:15:08 10° NNE
OAO 3 Rocket 3.3 20:07:46 10° W 20:12:38 87° S 20:17:35 10° E
Cosmos 2360 Rocket 3.3 20:09:03 10° SSE 20:13:17 22° E 20:17:32 10° NE
SJ-6B 3.3 20:10:00 10° S 20:13:53 66° WSW 20:17:55 10° NNW
Cosmos 1980 Rocket 3.8 20:08:36 10° SW 20:13:56 42° WNW 20:19:21 10° N
GENESIS II 4.2 20:12:50 10° SSW 20:16:52 75° ESE 20:20:56 10° NNE
USA 267 3.9 20:10:39 10° NE 20:17:06 62° NW 20:23:32 10° WSW
Cosmos 1400 Rocket 3.9 20:14:47 10° NNW 20:18:34 48° W 20:22:23 10° S
Spot 2 Rocket 3.6 20:13:57 10° SSE 20:18:55 57° ENE 20:23:54 10° N
Cosmos 1503 Rocket 4.4 20:14:35 10° N 20:19:36 44° ENE 20:24:31 10° SE
Cosmos 1408 3.3 20:21:39 10° NNE 20:25:02 33° E 20:28:21 10° SE
Cosmos 2142 Rocket 4.5 20:19:30 10° S 20:25:32 67° E 20:31:39 10° NNE
Cosmos 1354 Rocket 4.3 20:20:26 10° N 20:25:34 51° ENE 20:30:39 10° SE
ATLAS 5 CENTAUR R/B 3.7 20:25:16 10° N 20:30:16 26° NE 20:35:10 11° E
CZ-2D R/B 3.3 20:26:27 10° SSE 20:30:19 66° ENE 20:34:11 10° N
Cosmos 1707 Rocket 4.3 20:26:41 10° SSW 20:31:03 59° W 20:35:25 10° N
Meteor 1-29 4.0 20:28:44 10° NE 20:31:39 25° E 20:34:33 10° SSE
SL-16 R/B 2.3 20:29:00 10° SSW 20:34:40 85° WNW 20:40:22 10° NNE
Cosmos 1315 Rocket 3.4 20:32:08 10° NNW 20:36:08 60° W 20:40:03 10° S
Cosmos 1733 Rocket 3.7 20:34:27 10° N 20:38:37 38° E 20:42:21 12° SE
Envisat 3.6 20:34:33 10° SE 20:39:06 38° ENE 20:43:46 10° N
Cosmos 2026 Rocket 4.0 20:34:14 10° N 20:40:24 62° E 20:46:25 10° SSE
Cosmos 1933 3.7 20:38:29 10° SSE 20:42:16 41° E 20:46:04 10° NNE
Cosmos 1862 Rocket 3.8 20:40:24 10° SSE 20:44:42 51° E 20:49:03 10° NNE
USA 186 1.3 20:42:57 12° SSE 20:45:25 75° ENE 20:48:20 10° N
Helios 1A 3.3 20:42:30 12° SSE 20:46:14 50° ENE 20:50:22 10° N
USA 234 4.2 20:44:02 12° E 20:49:23 35° NNE 20:55:11 10° NNW
Meteor 2-20 Rocket 4.4 20:44:09 10° N 20:50:18 81° E 20:56:26 10° S
CZ-4B DEB 3.5 20:49:12 23° ESE 20:50:22 32° ENE 20:53:07 10° N
ERBS 3.4 20:47:14 10° NW 20:50:31 40° SW 20:53:16 13° SSE
SEDSat Delta rocket 3.6 20:47:30 10° WSW 20:52:25 57° S 20:56:23 19° ESE
YAOGAN 6 4.0 20:55:56 20° E 20:56:36 21° ENE 20:59:25 10° NNE
Resurs 1-3 4.5 20:56:31 10° S 21:00:45 49° W 21:05:02 10° NNW
Cosmos 1862 3.2 20:57:58 10° N 21:02:00 70° E 21:04:49 19° SSE
ERS-1 Rocket 3.9 21:02:03 23° ESE 21:04:05 30° ENE 21:08:26 10° N
Cosmos 1703 Rocket 4.4 21:04:06 26° ESE 21:05:19 31° E 21:09:12 10° NNE
Centaur AC-42 4.1 20:49:16 10° W 21:11:58 32° SSW 21:16:02 19° SSE
Sakura Rocket 3.8 21:13:30 10° SW 21:16:49 29° SSE 21:16:55 29° SSE
Cosmos 2219 Rocket 3.9 21:19:11 15° ENE 21:19:11 15° ENE 21:20:47 10° ENE
Meteor 2-10 Rocket 3.7 21:12:23 10° S 21:18:10 72° E 21:23:57 10° NNE
Cosmos 1939 Rocket 2.7 21:16:28 30° SSE 21:18:26 81° ENE 21:22:27 10° N
Meteor 1-26 Rocket 4.2 21:16:13 12° S 21:21:30 64° E 21:27:13 10° NNE
Cosmos 1655 Rocket 4.2 21:17:15 10° N 21:23:37 72° W 21:29:54 10° S
Cosmos 2221 Rocket 4.1 21:25:40 38° E 21:25:42 38° E 21:29:49 10° NNE
NOSS 3-1 (C) 4.2 21:29:43 28° E 21:29:43 28° E 21:33:37 10° NE
Cosmos 2266 Rocket 4.2 21:23:06 10° N 21:29:14 52° E 21:31:44 34° SE
SPOT 5 3.9 21:29:53 27° ENE 21:30:04 27° ENE 21:33:59 10° NNE
USA 229 DEB 3.6 21:26:48 10° SSW 21:33:37 90° E 21:40:34 10° NNE
USA 229 3.6 21:26:55 10° SSW 21:33:44 89° ESE 21:40:41 10° NNE
Helios 1B rocket 4.1 21:31:18 10° N 21:35:00 33° WNW 21:38:42 10° SW
Lacrosse 4 Rocket 3.3 21:31:52 10° NW 21:35:35 28° WSW 21:38:24 15° SSW
Resurs 01 Rocket 4.4 21:37:08 10° SW 21:39:47 15° W 21:42:26 10° WNW
Cosmos 2263 Rocket 2.6 21:36:01 10° NNW 21:41:28 58° WSW 21:44:21 28° S
Atlas Centaur 2 2.9 21:38:15 10° WSW 21:45:00 60° S 21:47:50 39° ESE
Cosmos 2237 4.1 21:40:49 10° SSW 21:46:33 88° ESE 21:52:19 10° NNE
Cosmos 489 Rocket 4.5 21:41:05 10° NNW 21:47:27 86° WSW 21:50:07 38° SSE
H-2A R/B 4.4 21:51:22 12° NE 21:51:22 12° NE 21:52:02 10° NE
COSMOS 2428 2.5 21:52:40 27° SSW 21:55:49 80° ESE 22:01:33 10° NNE
OAO 3 Rocket 3.3 21:51:18 10° W 21:56:06 60° SSW 21:56:06 60° SSW
Cosmos 2360 Rocket 3.3 21:51:34 10° SW 21:56:55 43° WNW 22:02:18 10° N
Cosmos 1908 Rocket 4.0 21:54:31 10° NNW 21:58:47 58° W 21:59:28 50° SW
Sich 1 Rocket 4.1 21:56:39 10° NNW 22:01:03 55° W 22:01:56 46° SW
MetOp-B 4.0 22:01:42 67° SE 22:02:19 78° ENE 22:07:41 10° N
MOS 1-B Rocket 3.9 22:03:26 55° E 22:04:04 58° ENE 22:09:35 10° N
Milstar 3 3.5 21:58:03 10° W 22:04:37 33° SSW 22:05:16 33° S
CZ-4C R/B 4.3 22:01:40 10° N 22:07:22 25° NE 22:09:38 22° ENE
Cosmos 968 Rocket 3.9 22:02:25 10° NNW 22:07:33 59° WSW 22:08:32 49° SSW
NOAA 11 4.1 22:07:24 68° SSE 22:08:11 90° WSW 22:13:42 10° NNW
Meteor 1-14 Rocket 4.3 22:02:31 10° NNW 22:08:13 76° W 22:09:37 52° SSW
Cosmos 1844 4.5 22:06:49 10° N 22:11:46 37° NE 22:11:46 37° NE
Meteor 1-25 Rocket 4.0 22:06:54 10° N 22:12:29 85° E 22:12:49 79° SE
Cosmos 1782 Rocket 3.9 22:08:57 10° NNW 22:12:51 65° NW 22:12:51 65° NW
USA 245 4.0 22:14:24 78° ESE 22:14:34 79° ENE 22:19:39 10° N
Nadezhda 2 Rocket 4.4 22:08:24 10° N 22:14:52 75° E 22:15:36 67° SE
ATLAS 5 CENTAUR R/B 2.8 22:09:14 10° NW 22:15:18 58° WSW 22:16:45 47° SSW
Terra 3.6 22:19:36 21° NE 22:19:36 21° NE 22:21:52 10° NNE
ARGOS 3.0 22:19:22 85° NE 22:19:22 85° NE 22:24:42 10° NNW
H-2A R/B 2.7 22:21:01 43° NE 22:21:01 43° NE 22:24:44 10° N
Okean 1-7 3.9 22:22:18 48° W 22:22:18 48° W 22:26:32 10° N
Cosmos 1867 4.0 22:17:05 10° NW 22:22:22 52° WSW 22:22:39 51° SW
Meteor 1-20 Rocket 4.1 22:18:42 10° N 22:24:20 85° W 22:24:25 85° SW
Okean 2 Rocket 3.8 22:21:18 10° N 22:24:50 53° NNW 22:24:50 53° NNW
USA 234 3.2 22:31:22 63° SSW 22:32:04 67° SW 22:38:35 10° NW
Cosmos 2237 Rocket 3.7 22:37:35 26° NE 22:37:35 26° NE 22:40:06 10° NNE
Meteor 2-6 Rocket 4.3 22:35:36 83° NNW 22:35:36 83° NNW 22:41:22 10° N
Cosmos 2333 Rocket 2.9 22:37:14 46° NE 22:37:14 46° NE 22:41:15 10° NNE
Cosmos 2278 Rocket 3.4 22:37:24 10° N 22:41:24 33° NE 22:41:24 33° NE
Cosmos 1844 Rocket 2.9 22:37:54 10° NNW 22:42:37 65° NNW 22:42:37 65° NNW
SeaSat 1 3.2 22:47:30 50° NNW 22:47:30 50° NNW 22:51:08 10° NNW
Cosmos 2219 Rocket 2.9 23:00:48 49° NW 23:00:48 49° NW 23:05:58 10° N
Cosmos 1745 Rocket 4.4 23:01:43 10° N 23:06:41 57° NNE 23:06:41 57° NNE
Atlas Centaur 2 4.2 23:27:09 10° W 23:30:29 28° WSW 23:30:29 28° WSW
NOSS 3-1 (A) 4.5 23:35:07 39° NW 23:35:10 39° NW 23:41:07 10° NNE
ATLAS 2AS CENTAUR R/B 4.2 23:39:38 31° NE 23:39:38 31° NE 23:43:39 10° NE
Terra 4.4 23:58:29 16° NW 23:58:29 16° NW 23:59:42 10° NW
